Tracking 27111 objects as of 28-Mar-2023
HD Live streaming from Space Station
objects crossing your sky now

STARLINK-5583

Track STARLINK-5583 now!
10-day predictions
STARLINK-5583 is classified as:


NORAD ID: 55768
Int'l Code: 2023-028AD
Perigee: 364.1 km
Apogee: 368.4 km
Inclination: 70.0 °
Period: 91.7 minutes
Semi major axis: 6737 km
RCS: Unknown
Launch date: March 3, 2023
Source: United States (US)
Launch site: AIR FORCE WESTERN TEST RANGE (AFWTR)
Your satellite tracking list
Your tracking list is empty




NASA's NSSDC Master Catalog

Two Line Element Set (TLE):
1 55768U 23028AD  23087.15594886 -.00000572  00000-0 -29911-5 0  9995
2 55768  70.0012  86.6037 0003236 263.5093  96.5735 15.69926476  4492
Source of the keplerian elements: AFSPC